Location: Middelsbur
(53.6609°N, 7.5020°E)
Time: 23:46:45
(UTC+00:00)

Cosmos 2237 Rocket - Pass Details

Date: 06 July 2020
Orbit: 835 x 850 km, 71.0° (Epoch: 14 August)

Event Time Altitude Azimuth Distance (km) Brightness Sun altitude
Exits shadow 21:59:09 - 192° (SSW) 2,591 4.2 -11.0°
Reaches altitude 10° 21:59:29 10° 191° (S) 2,470 4.1 -11.0°
Maximum altitude 22:05:01 57° 114° (ESE) 1,002 2.4 -11.3°
Drops below altitude 10° 22:10:36 10° 38° (NE) 2,489 5.1 -11.6°
Sets 22:13:05 0° 34° (NE) 3,428 5.9 -11.7°
